Location: Unspecified
(0.0000°N, 0.0000°E)
Time: 08:48:33
(UTC+00:00)

Vanguard 2 - Pass Details

Date: 23 October 2021
Orbit: 554 x 2936 km, 32.9° (Epoch: 06 December)

Event Time Altitude Azimuth Distance (km) Brightness Sun altitude
Rises 00:58:29 0° 265° (W) 6,643 - -68.3°
Reaches altitude 10° 01:04:35 10° 277° (W) 5,375 - -67.0°
Maximum altitude 01:15:39 24° 324° (NW) 3,626 - -64.6°
Drops below altitude 10° 01:23:53 10° 13° (NNE) 3,880 - -62.8°
Sets 01:27:25 0° 28° (NNE) 4,494 - -62.0°
